Regional Weather Roundup
Issued by NWS Pendleton, OR

Home | Current Version | Previous Version | Text Only | Print | Product List | Glossary On
Versions: 1 2 3 4 5 6 7 8 9 10 11 12 13 14 15 16 17 18 19 20 21 22 23 24 25 26 27 28 29 30 31 32 33 34 35 36 37 38 39 40 41 42 43 44 45 46 47 48 49 50
007
ASUS46 KPDT 190525
RWRPDT
PENDLETON REGIONAL WEATHER ROUNDUP
NATIONAL WEATHER SERVICE PENDLETON OREGON
1000 PM PDT WED OCT 18 2017

NOTE: FAIR INDICATES FEW OR NO CLOUDS BELOW 12,000 FEET WITH NO
SIGNIFICANT WEATHER AND/OR OBSTRUCTIONS TO VISIBILITY.

# INDICATES UNOFFICIAL STATION AND DATA

WAZ520-190610-
EAST SLOPES OF WASHINGTON CASCADES

CITY            SKY/WX      TMP DP  RH  WIND    PRES   REMARKS
#BULLFROG       N/A         43  42  96  CALM    N/A
#CLE ELUM HS    N/A         42  41  96  CALM    29.61S
#CLE ELUM LAKE  N/A         43  42  96  CALM    29.62F
#EASTON DOT     N/A         40  40  100 CALM    N/A
#ELK HTS DOT    N/A         43  43  100 CALM    N/A
#GLENWOOD       N/A         54  49  83  S3      29.74F
#NELSON 3SW     N/A         41  39  93  CALM    29.85S
#NILE           N/A         51  45  80  CALM    28.89F
#TEANAWAY 4NE   N/A         44  43  96  CALM    N/A
#TROUT LAKE 1NE N/A         55  49  80  N3      29.74F
#TROUT LAKE 1E  N/A         53  49  86  CALM    29.76F
$$

WAZ521-190610-
SIMCOE HIGHLANDS

CITY            SKY/WX      TMP DP  RH  WIND    PRES   REMARKS
#BICKLETON HS   N/A         53  48  83  SW14    29.75F
#CENTERVILLE 1SWN/A         55  47  74  CALM    29.68F
#GOLDENDALE 4W  N/A         54  36  50  W7      29.77F
#GOODNOE HILLS  N/A         60  48  64  W15     N/A
#LYLE 6NE       N/A         54  51  90  CALM    29.73F
#PITT 4SE       N/A         51  48  89  W1      29.75F
$$

WAZ026-190610-
KITTITAS VALLEY

CITY            SKY/WX      TMP DP  RH  WIND    PRES   REMARKS
ELLENSBURG AP   CLOUDY      63  41  44  SW18G25 29.60F
#ELLENSBURG CWU N/A         61  43  51  S8      29.53F
#ELLENSBURG 3NE N/A         61  45  56  N8      27.70F
#ELLENSBURG 1E  N/A         62  43  50  SW6     29.63F
#KITTITAS 3S    N/A         63  44  50  S17     29.58F
#MANASTASH RDG  N/A         56  56  100 S13     N/A
#ROCKY CYN DOT  N/A         47  43  86  W13     N/A    WCI 41
#RYEGRASS DOT   N/A         57  41  55  SE26    N/A
$$

WAZ027-190610-
YAKIMA VALLEY

CITY            SKY/WX      TMP DP  RH  WIND    PRES   REMARKS
SUNNYSIDE AP    CLOUDY      60  45  58  S7      29.66F
YAKIMA AIRPORT  CLOUDY      65  45  48  SW21G32 29.64S
YAKIMA-VAGABOND MOCLDY      62  42  48  SW28G36 29.61F
#DONALD 2NE     N/A         62  24  23  SW8     29.69F
#GRANDVIEW      N/A         63  45  52  SW3     29.63F
#MABTON         N/A         63  48  58  S3      29.67F
#MOXEE 2E       N/A         65  N/A N/A S21     29.67F
#NACHES 2SW     N/A         60  46  60  S7      29.65F
#OUTLOOK DOT    N/A         60  46  60  N2      29.63F
#PARKER DOT     N/A         63  45  52  NE6     29.66S
#TERRACE HTS    N/A         62  46  56  SW7     29.62F
#TOPPENISH      N/A         65  46  50  W12     29.58F
#I82 S UMTANUM RN/A         59  43  55  SW13    N/A
#UNION GAP DOT  N/A         63  45  52  W6      29.70R
#W YAKIMA       N/A         61  45  56  SW14    29.63F
#WHITE SWAN 5E  N/A         63  47  56  CALM    29.66F
#WILEY CITY 3W  N/A         62  39  43  SW5     29.59F
#ZILLAH DOT     N/A         63  44  50  E1      N/A
$$

WAZ028-190610-
LOWER COLUMBIA BASIN...WASHINGTON

CITY            SKY/WX      TMP DP  RH  WIND    PRES   REMARKS
PASCO           CLOUDY      55  51  86  E6      29.69F
PROSSER AWOS    N/A         64  46  52  W15     29.70F
RICHLAND AWOS   CLOUDY      63  48  58  S5      29.68F
#BENTON CITY    N/A         60  47  62  S2      29.56F
#CONNELL 5N     N/A         58  50  75  SW8     29.65F
#CONNELL 5NW    N/A         58  49  72  SW7     29.62F
#ELTOPIA 6NW    N/A         57  50  77  CALM    28.66F
#KAHLOTUS       N/A         58  47  67  W17     29.67F
#KENNEWICK 3S   N/A         59  48  67  SW3     29.68F
#PATERSON       N/A         51  47  86  CALM    29.68F
#PROSSER DOT    N/A         63  46  54  SW13    29.68F
#SAGEMOOR 2W    N/A         56  48  74  S8      29.54F
#TOUCHET 2S     N/A         57  48  72  NW2     29.67F
#WEST PASCO     N/A         54  49  83  CALM    29.64F
$$

WAZ029-190610-
FOOTHILLS OF THE BLUES...WASHINGTON

CITY            SKY/WX      TMP DP  RH  WIND    PRES   REMARKS
WALLA WALLA AP  CLOUDY      59  41  51  S9      29.72F
#CLYDE 6NW      N/A         56  48  74  CALM    29.68F
#DAYTON SCHOOL  N/A         49  40  71  CALM    29.74F
#DELANEY DOT    N/A         49  47  93  CALM    29.71F
#LOWDEN 2SE     N/A         50  49  96  E1      29.67F
#PLEASANT VIEW 1N/A         56  46  69  SW7     29.73F
#PRESCOTT       N/A         51  48  89  CALM    29.70S
#WHITMAN COLLEGEN/A         58  44  60  CALM    29.74F
#WAITSBURG 6SSE N/A         56  37  49  E3      29.69F
#WAITSBURG 8N   N/A         55  N/A N/A S3      29.73S
#WALLA WALLA 5E N/A         54  42  64  NE2     N/A
#WHITMAN MISSIONN/A         50  47  89  CALM    29.71F
$$

WAZ030-190610-
BLUE MOUNTAINS...WASHINGTON

CITY            SKY/WX      TMP DP  RH  WIND    PRES   REMARKS
#DIXIE 5SE      N/A         62  31  31  SW7     29.70S
$$

ORZ009-041-WAZ024-190610-
COLUMBIA RIVER GORGE

CITY            SKY/WX      TMP DP  RH  WIND    PRES   REMARKS
HOOD RIVER AP   CLOUDY      52  50  93  CALM    29.73F
THE DALLES AP   MOCLDY      56  50  80  VRB3    29.70F
#ARLINGTON AIRPON/A         53  47  80  SE6     29.70F
#CELILO DOT     N/A         59  51  75  SW2     N/A
#LYLE           N/A         57  52  83  N2      29.72F
#MARYHILL       N/A         57  49  75  N2      N/A
#MURDOCK        N/A         57  53  86  NW6     29.66F
#RUFUS DOT      N/A         56  N/A N/A S5      N/A
#SMITHVILLE     N/A         58  53  83  N7      29.66F

$$

ORZ510-190610-
NORTH CENTRAL OREGON

CITY            SKY/WX      TMP DP  RH  WIND    PRES   REMARKS
#ANTELOPE       N/A         50  34  54  CALM    29.61F
#CHENOWITH 1W   N/A         53  50  89  W12     N/A
#COW CYN RST AREN/A         60  31  33  SW16    N/A
#DUFUR          N/A         60  43  53  CALM    29.68F
#DUFUR 9E       N/A         57  41  55  W12     29.76F
#GRASS VALLEY 1SN/A         55  40  57  SW7     29.78F
#KENT DOT       N/A         61  26  26  SW17    N/A
#MAUPIN SCHOOL  N/A         65  41  41  CALM    29.77F
#MORO SCHOOL    N/A         61  42  50  W8      29.73F
#SHANIKO 5WSW   N/A         58  -1   9  SW18    N/A
#SHANIKO 4NW    N/A         56  32  40  SW6     29.77F
#TYGH VALLEY 2NEN/A         60  42  51  N5      29.70F
#WAPANITIA AIRPON/A         59  40  49  NW2     29.74F
#WASCO DOT      N/A         59  49  69  W10     N/A
#WASCO 5NE      N/A         58  46  64  CALM    29.70F
$$

ORZ511-190610-
CENTRAL OREGON

CITY            SKY/WX      TMP DP  RH  WIND    PRES   REMARKS
BEND AIRPORT    PTCLDY      57  28  33  S12     29.84F
MADRAS AIRPORT  PTCLDY      59  54  83  S8      29.80F
PRINEVILLE AP   PTCLDY      57  28  33  SE7     29.84F
REDMOND AIRPORT PTCLDY      54  26  34  S10     29.81F
#ASHWOOD SCHOOL N/A         48  32  54  CALM    29.76F
#BEND 1SW       N/A         48  31  51  SW1     N/A
#BEND-AWBREY    N/A         56  31  38  SW7     29.74F
#BEND-KIM LN    N/A         55  30  38  SW3     29.67F
#CULVER         N/A         55  32  41  CALM    29.61F
#CULVER 8W      N/A         61  22  22  S5      29.83F
#LAKE BILLY CHINN/A         50  N/A N/A W2      29.99R
#MADRAS 4S      N/A         57  15  19  SW10    N/A
#POWELL BUTTE   N/A         62  27  26  SW14    29.80F
#PRINEVILLE     N/A         55  33  43  SW1     29.87F
#PRINEVILLE 3N  N/A         52  32  46  NE1     29.79F
#WARM SPRINGS   N/A         63  38  39  CALM    29.59F

$$


ORZ509-190610-
EAST SLOPES OF OREGON CASCADES

CITY            SKY/WX      TMP DP  RH  WIND    PRES   REMARKS
SISTERS AWOS    N/A         52  32  46  CALM    N/A
#BLUE BOX PASS  N/A         49  N/A N/A CALM    N/A
#CAMP SHERMAN   N/A         43  35  73  CALM    29.84F
#LA PINE 4NW    N/A         49  30  48  CALM    29.88F
#LAVA BUTTE DOT N/A         52  25  35  SE6     N/A
#SISTERS ODOT   N/A         49  30  48  S1      N/A
#SISTERS 3N     N/A         47  28  47  CALM    29.85S
#SUNRIVER       N/A         52  30  43  S1      29.80F
#TUMALO 3W      N/A         55  32  41  S10     29.61F
#WANOGA BUTTE D N/A         45  25  45  W10     N/A

$$

ORZ044-190610-
LOWER COLUMBIA BASIN...OREGON

CITY            SKY/WX      TMP DP  RH  WIND    PRES   REMARKS
HERMISTON       CLOUDY      50  46  86  S3      29.70F
#BOARDMAN SCHOOLN/A         47  44  89  CALM    29.69F
#BOARDMAN 8SW   N/A         54  48  80  CALM    29.69F
#ECHO 8SW       N/A         50  44  80  SE1     29.71F
#I-84 EX 198 DOTN/A         58  46  64  NE3     N/A
#IONE SCHOOL    N/A         66  31  27  SW1     29.70F
#UMATILLA       N/A         50  44  80  CALM    29.63F
$$

ORZ507-190610-
NORTHERN FOOTHILLS OF THE BLUES

CITY            SKY/WX      TMP DP  RH  WIND    PRES   REMARKS
PENDLETON AIRPT MOCLDY      56  43  62  SE6     29.73F
#ADAMS 3WNW     N/A         47  37  68  CALM    29.71F
#ATHENA         N/A         54  37  52  CALM    29.74F
#CAYUSE         N/A         57  39  51  E5      29.70F
#HELIX SCHOOL   N/A         47  40  76  CALM    29.72F
#HELIX 3N       N/A         53  39  59  S7      29.72F
#HOLDMAN 5SE    N/A         54  45  71  S3      29.72F
#HOLDMAN 6E     N/A         53  45  74  E3      29.51F
#M-F GROVE ELEM N/A         59  33  37  CALM    29.70F
#M-FREEWATER 5SEN/A         57  39  51  CALM    29.73F
#PENDLETON DNTN N/A         49  37  63  CALM    29.72F
#PDT AQUATIC CTRN/A         50  38  63  CALM    29.72S
#PDT SUNRIDGE   N/A         46  40  79  CALM    29.74F
#PENDLETON 7NW  N/A         49  41  74  CALM    27.96S
#PILOT ROCK 1S  N/A         55  27  34  CALM    29.76F
#PILOT ROCK     N/A         50  30  46  CALM    29.76F
#TUTUILLA       N/A         45  36  70  CALM    29.75F
#UMAPINE 2E     N/A         48  44  86  CALM    29.68F
#WESTON SCHOOL  N/A         62  29  28  SW1     29.68F

$$

ORZ508-190610-
SOUTHERN FOOTHILLS OF THE BLUES

CITY            SKY/WX      TMP DP  RH  WIND    PRES   REMARKS
LEXINGTON       PTCLDY      59  30  33  SE6     29.75F
#FOSSIL SCHOOL  N/A         49  33  54  CALM    29.73F
#HEPPNER EOC    N/A         57  32  38  SE1     29.64F
#HEPPNER 4NE    N/A         58  30  34  CALM    29.70F
#LEXINGTON 2SE  N/A         55  33  43  CALM    29.69F
#MIKKALO        N/A         62  33  34  SE5     29.82F
#OLEX 4N        N/A         58  42  55  SW3     29.70F
#RUGGS 5NE      N/A         58  28  32  SW7     29.91F
#RUGGS 2SW      N/A         59  30  33  W7      29.72F

$$

ORZ502-503-190610-
BLUE MOUNTAINS

CITY            SKY/WX      TMP DP  RH  WIND    PRES   REMARKS
MEACHAM         PTCLDY      42  32  67  CALM    29.82F
#BATTLE MTN DOT N/A         52  24  33  S8      N/A
#GRANITE        N/A         37  25  61  CALM    29.98R
#GREENHORN 9SW  N/A         38  32  79  CALM    26.10F
#HEPPNER 15SE   N/A         59  29  32  SE1     29.85F
#LADD CYN SMT   N/A         52  26  36  SE12    N/A
#LADD CREEK ODOTN/A         48  32  54  SW1     N/A
#LONG CREEK HS  N/A         55  30  38  CALM    29.84F
#N POWDER DOT   N/A         42  33  70  CALM    N/A
#TOLLGATE       N/A         51  29  42  SW2     29.73F
#TROY SCHOOL    N/A         47  40  76  CALM    29.61F
#UKIAH          N/A         39  33  79  CALM    29.72F
#WESTON 4E      N/A         59  33  37  S2      29.70F
$$

ORZ505-190610-
JOHN DAY BASIN

CITY            SKY/WX      TMP DP  RH  WIND    PRES   REMARKS
JOHN DAY        CLEAR       54  29  38  E3      29.86F
#ANTELOPE 9ESE  N/A         51  32  48  W1      N/A
#DAYVILLE SCHOOLN/A         52  32  46  CALM    29.80S
#MITCHELL 8NW   N/A         60  27  28  SW7     29.77F
#SPRAY SCHOOL   N/A         43  N/A N/A CALM    N/A
$$

ORZ506-190610-
OCHOCO AND JOHN DAY HIGHLANDS

CITY            SKY/WX      TMP DP  RH  WIND    PRES   REMARKS
#HORSE RIDGE DO N/A         51  23  33  S2      N/A
#IZEE 6NW       N/A         36  28  72  CALM    N/A
#PAULINA ODOT   N/A         48  27  44  NE1     N/A
#PINE MTN OBS   N/A         48  25  40  SE21    N/A    WCI 41
#PRAIRIE CITY   N/A         41  31  67  CALM    30.01F
#SENECA         N/A         40  N/A N/A N2      N/A
#SENECA 9NW     N/A         35  27  72  CALM    29.91S
$$

ORZ049-190610-
GRANDE RONDE VALLEY

CITY            SKY/WX      TMP DP  RH  WIND    PRES   REMARKS
LA GRANDE       CLEAR       59  31  34  S20     29.81F
#COVE           N/A         65  35  33  SE9     29.84F
#COVE SCHOOL    N/A         65  31  28  SE2     29.83F
#COVE 6NW       N/A         57  33  40  S7      29.76F
#ELGIN 3N       N/A         60  28  29  W8      30.22F
#ELGIN 1E       N/A         57  32  38  S1      N/A
#IMBLER SCHOOL  N/A         55  33  43  CALM    29.79F
#ISLAND CITY 4N N/A         59  53  80  S7      29.72F
#UNION 1S       N/A         58  33  39  E13     29.79F
$$

ORZ050-190610-
WALLOWA COUNTY

CITY            SKY/WX      TMP DP  RH  WIND    PRES   REMARKS
JOSEPH AIRPORT  PTCLDY      63  23  21  SW3     29.84F
#ENTERPRISE HS  N/A         61  32  33  E6      29.66F
#IMNAHA SCHOOL  N/A         65  33  30  N9      29.78F
#IMNAHA 10S     N/A         62  30  30  SW7     29.83F
#JOSEPH         N/A         62  26  25  E10     30.30F
#JOSEPH 3N      N/A         57  29  34  E13     29.87F
#JOSEPH 3W      N/A         54  33  45  W2      30.30F
#LOSTINE        N/A         42  37  82  CALM    29.59F
#LOSTINE 3SE    N/A         46  35  65  CALM    29.85F
#MT HOWARD 8000 N/A         46  22  38  S17     29.98F WCI 39
#PROMISE 1S     N/A         50  34  54  CALM    29.85F
#WALLOWA LAKE   N/A         62  28  27  SE6     29.86F
#WALLOWA SCHOOL N/A         37  35  92  CALM    29.80F



$$



USA.gov is the U.S. government's official web portal to all federal, state and local government web resources and services.